CW3322 Weather Reports


Display with metric or nautical units.
time (UTC)temp
F
wind
direction
speed
MPH
gust
MPH
rain 1hr
in
rain 24hr
in
rain mn
in
humidity
%
barometer
mb
20260508175516 62 9 0.0 2.0 0.00 0.00 0.00 60 1016.0
20260508175021 63 4 0.0 2.0 0.00 0.00 0.00 60 1016.0
20260508174526 63 5 1.0 2.0 0.00 0.00 0.00 59 1015.8
20260508174018 63 14 1.0 5.0 0.00 0.00 0.00 59 1015.8
20260508173523 63 4 0.0 4.0 0.00 0.00 0.00 60 1015.9
20260508173046 63 0.0 0.0 0.00 0.00 0.00 59 1015.9
20260508172521 64 10 1.0 2.0 0.00 0.00 0.00 58 1015.9
20260508172026 64 20 1.0 3.0 0.00 0.00 0.00 58 1015.9
20260508171519 64 9 0.0 1.0 0.00 0.00 0.00 57 1015.9
20260508171024 65 13 1.0 3.0 0.00 0.00 0.00 56 1015.9
20260508170517 65 38 2.0 7.0 0.00 0.00 0.00 55 1015.9
20260508170022 65 23 1.0 8.0 0.00 0.00 0.00 55 1015.9
20260508165557 65 27 1.0 5.0 0.00 0.00 0.00 56 1015.9
20260508165049 65 4 0.0 1.0 0.00 0.00 0.00 56 1015.9
20260508164556 66 0.0 0.0 0.00 0.00 0.00 56 1015.9
20260508164017 66 14 0.0 3.0 0.00 0.00 0.00 56 1015.9
20260508163649 66 360 1.0 2.0 0.00 0.00 0.00 56 1015.9
20260508163057 66 5 0.0 0.0 0.00 0.00 0.00 56 1015.9
20260508162550 66 358 0.0 1.0 0.00 0.00 0.00 56 1015.9
20260508162025 66 348 0.0 0.0 0.00 0.00 0.00 56 1015.9
20260508161518 67 356 0.0 1.0 0.00 0.00 0.00 55 1015.9
20260508161023 66 356 0.0 2.0 0.00 0.00 0.00 55 1015.9
20260508160516 66 359 0.0 2.0 0.00 0.00 0.00 56 1015.9
20260508160154 65 0.0 0.0 0.00 0.00 0.00 57 1015.9
20260508155526 66 359 0.0 0.0 0.00 0.00 0.00 57 1015.9
20260508155246 66 9 0.0 1.0 0.00 0.00 0.00 56 1015.9
20260508154523 67 4 0.0 2.0 0.00 0.00 0.00 56 1015.9
20260508154016 68 14 1.0 5.0 0.00 0.00 0.00 54 1016.0
20260508153522 69 19 1.0 4.0 0.00 0.00 0.00 52 1016.0
20260508153026 69 31 1.0 5.0 0.00 0.00 0.00 50 1016.0
20260508152519 69 5 0.0 2.0 0.00 0.00 0.00 52 1016.0
20260508152024 70 16 1.0 4.0 0.00 0.00 0.00 52 1016.0
20260508151547 71 358 0.0 2.0 0.00 0.00 0.00 49 1016.0
20260508151052 70 358 1.0 2.0 0.00 0.00 0.00 49 1016.0
20260508150515 69 2 1.0 2.0 0.00 0.00 0.00 49 1016.0
20260508150020 68 355 0.0 2.0 0.00 0.00 0.00 52 1016.0
20260508145525 68 359 0.0 1.0 0.00 0.00 0.00 55 1016.0
20260508145018 68 21 1.0 5.0 0.00 0.00 0.00 53 1016.0
20260508144523 68 11 1.0 3.0 0.00 0.00 0.00 55 1016.0
20260508144015 69 30 1.0 3.0 0.00 0.00 0.00 54 1016.0
20260508143520 68 50 1.0 6.0 0.00 0.00 0.00 53 1016.0
20260508143025 68 22 0.0 7.0 0.00 0.00 0.00 54 1016.0
20260508142518 68 359 0.0 1.0 0.00 0.00 0.00 53 1016.0
20260508142053 68 358 0.0 2.0 0.00 0.00 0.00 53 1016.0
20260508141516 69 14 0.0 2.0 0.00 0.00 0.00 51 1016.0
20260508141021 69 34 1.0 5.0 0.00 0.00 0.00 51 1016.1
20260508140527 68 20 1.0 2.0 0.00 0.00 0.00 51 1016.0
20260508140019 67 26 0.0 5.0 0.00 0.00 0.00 53 1016.0
20260508135537 67 26 1.0 5.0 0.00 0.00 0.00 53 1016.0
20260508135030 67 19 1.0 3.0 0.00 0.00 0.00 53 1016.9
20260508134523 69 2 1.0 2.0 0.00 0.00 0.00 51 1017.0
20260508134016 70 26 1.0 5.0 0.00 0.00 0.00 51 1017.1
20260508133520 70 30 1.0 5.0 0.00 0.00 0.00 51 1017.1
20260508133026 70 22 0.0 2.0 0.00 0.00 0.00 51 1017.1
20260508132518 69 355 1.0 2.0 0.00 0.00 0.00 52 1017.1
20260508132024 70 20 1.0 3.0 0.00 0.00 0.00 50 1017.1
20260508131516 69 18 1.0 3.0 0.00 0.00 0.00 52 1017.1
20260508131022 68 359 0.0 2.0 0.00 0.00 0.00 55 1017.0
20260508130515 67 49 1.0 5.0 0.00 0.00 0.00 55 1017.0
20260508130020 67 22 1.0 3.0 0.00 0.00 0.00 56 1017.0
20260508125526 66 8 1.0 2.0 0.00 0.00 0.00 58 1017.0
20260508125048 66 30 1.0 3.0 0.00 0.00 0.00 57 1017.0
20260508124524 66 30 1.0 3.0 0.00 0.00 0.00 55 1017.0
20260508124016 66 25 0.0 2.0 0.00 0.00 0.00 55 1017.0
20260508123522 65 273 1.0 3.0 0.00 0.00 0.00 57 1017.0
20260508123027 66 317 1.0 3.0 0.00 0.00 0.00 55 1017.0
20260508122620 66 18 1.0 4.0 0.00 0.00 0.00 55 1017.0
20260508122025 66 12 1.0 5.0 0.00 0.00 0.00 56 1017.0
20260508121618 66 37 1.0 5.0 0.00 0.00 0.00 55 1017.0
20260508121023 66 337 0.0 0.0 0.00 0.00 0.00 54 1017.0
20260508120516 66 4 1.0 2.0 0.00 0.00 0.00 55 1017.0
20260508120022 66 42 1.0 5.0 0.00 0.00 0.00 55 1017.0
20260508115526 66 37 1.0 8.0 0.00 0.00 0.00 54 1017.0
20260508115049 65 53 1.0 7.0 0.00 0.00 0.00 55 1017.0
20260508114524 65 5 0.0 6.0 0.00 0.00 0.00 56 1017.0
20260508114016 65 9 1.0 8.0 0.00 0.00 0.00 57 1017.0
20260508113521 65 7 0.0 2.0 0.00 0.00 0.00 57 1017.0
20260508113026 65 34 1.0 5.0 0.00 0.00 0.00 55 1017.0
20260508112518 65 10 1.0 2.0 0.00 0.00 0.00 57 1017.0
20260508112053 65 13 1.0 5.0 0.00 0.00 0.00 54 1017.0
20260508111515 65 18 1.0 5.0 0.00 0.00 0.00 54 1017.0
20260508111020 65 31 2.0 5.0 0.00 0.00 0.00 55 1017.0
20260508110625 65 56 2.0 7.0 0.00 0.00 0.00 55 1017.0
20260508110018 65 27 2.0 5.0 0.00 0.00 0.00 55 1017.0
20260508105522 65 23 2.0 8.0 0.00 0.00 0.00 56 1017.0
20260508105027 65 34 1.0 5.0 0.00 0.00 0.00 55 1017.0
20260508104524 65 51 2.0 7.0 0.00 0.00 0.00 56 1017.0
20260508104017 65 35 2.0 8.0 0.00 0.00 0.00 57 1017.0
20260508103521 64 50 2.0 6.0 0.00 0.00 0.00 57 1017.0
20260508103040 64 45 2.0 6.0 0.00 0.00 0.00 56 1017.0
20260508102532 64 49 2.0 8.0 0.00 0.00 0.00 56 1017.0
20260508102025 64 30 2.0 6.0 0.00 0.00 0.00 57 1017.6
20260508101516 64 28 1.0 10.0 0.00 0.00 0.00 58 1018.0
20260508101020 64 24 2.0 6.0 0.00 0.00 0.00 57 1018.1
20260508100625 64 22 2.0 8.0 0.00 0.00 0.00 57 1018.1
20260508100017 63 31 1.0 6.0 0.00 0.00 0.00 58 1018.0
20260508095522 63 40 2.0 7.0 0.00 0.00 0.00 58 1018.0
20260508095026 63 50 2.0 5.0 0.00 0.00 0.00 58 1018.0
20260508094518 63 10 1.0 3.0 0.00 0.00 0.00 62 1018.0
20260508094022 63 5 2.0 6.0 0.00 0.00 0.00 61 1018.1
20260508093526 63 13 1.0 5.0 0.00 0.00 0.00 62 1018.1
20260508093017 62 3 1.0 3.0 0.00 0.00 0.00 63 1018.0
20260508092522 62 29 2.0 5.0 0.00 0.00 0.00 63 1018.0
20260508092026 62 46 1.0 5.0 0.00 0.00 0.00 63 1018.0
20260508091517 62 43 2.0 4.0 0.00 0.00 0.00 64 1018.0
20260508091021 63 35 1.0 8.0 0.00 0.00 0.00 65 1018.1
20260508090526 61 16 1.0 3.0 0.00 0.00 0.00 67 1018.0
20260508090018 60 13 1.0 5.0 0.00 0.00 0.00 69 1018.0
20260508085522 60 33 2.0 7.0 0.00 0.00 0.00 68 1018.0
20260508085026 60 34 1.0 5.0 0.00 0.00 0.00 69 1018.0
20260508084519 60 27 2.0 6.0 0.00 0.00 0.00 70 1018.0
20260508084052 60 30 1.0 5.0 0.00 0.00 0.00 71 1018.0
20260508083527 60 48 1.0 6.0 0.00 0.00 0.00 71 1018.0
20260508083018 59 14 1.0 2.0 0.00 0.00 0.00 72 1018.0
20260508082523 59 50 1.0 6.0 0.00 0.00 0.00 72 1018.0
20260508082027 60 23 1.0 5.0 0.00 0.00 0.00 72 1018.0
20260508081549 60 40 0.0 2.0 0.00 0.00 0.00 73 1018.0
20260508081123 59 15 0.0 2.0 0.00 0.00 0.00 74 1018.0
20260508080515 58 351 0.0 2.0 0.00 0.00 0.00 76 1018.0
20260508080020 58 24 0.0 3.0 0.00 0.00 0.00 76 1018.0
20260508075524 58 29 0.0 2.0 0.00 0.00 0.00 76 1018.0
20260508075016 57 27 0.0 3.0 0.00 0.00 0.00 77 1018.0
20260508074520 56 20 0.0 3.0 0.00 0.00 0.00 79 1018.0
20260508074024 56 43 0.0 2.0 0.00 0.00 0.00 78 1018.0
20260508073515 56 12 0.0 2.0 0.00 0.00 0.00 79 1018.0
20260508073019 56 0.0 0.0 0.00 0.00 0.00 79 1018.0
20260508072523 55 0.0 0.0 0.00 0.00 0.00 80 1018.0
20260508072016 54 0.0 0.0 0.00 0.00 0.00 81 1018.0
20260508071533 54 0.0 0.0 0.00 0.00 0.00 83 1018.0
20260508071025 54 0.0 0.0 0.00 0.00 0.00 82 1018.1
20260508070517 54 0.0 0.0 0.00 0.00 0.00 82 1018.1
20260508070050 54 25 1.0 2.0 0.00 0.00 0.00 83 1018.1
20260508065524 54 38 1.0 2.0 0.00 0.00 0.00 83 1018.1
20260508065116 54 43 1.0 3.0 0.00 0.00 0.00 84 1018.1
20260508064521 54 0.0 0.0 0.00 0.00 0.00 84 1018.1
20260508064024 54 0.0 0.0 0.00 0.00 0.00 84 1018.1
20260508063516 54 360 0.0 2.0 0.00 0.00 0.00 85 1018.1
20260508063051 54 4 0.0 2.0 0.00 0.00 0.00 85 1018.1
20260508062524 53 0.0 0.0 0.00 0.00 0.00 88 1018.1
20260508062016 52 0.0 0.0 0.00 0.00 0.00 88 1018.0
20260508061551 51 22 0.0 2.0 0.00 0.00 0.00 90 1018.0
20260508061025 50 0.0 0.0 0.00 0.00 0.00 94 1018.0
20260508060517 50 0.0 0.0 0.00 0.00 0.00 96 1018.0
20260508060021 49 1 0.0 1.0 0.00 0.00 0.00 97 1017.7
20260508055556 48 11 0.0 2.0 0.00 0.00 0.00 99 1017.0
20260508055118 47 358 0.0 1.0 0.00 0.00 0.00 99 1016.9
20260508054622 46 18 0.0 2.0 0.00 0.00 0.00 99 1017.1
20260508054056 44 0.0 0.0 0.00 0.00 0.00 99 1017.9
20260508053517 43 0.0 0.0 0.00 0.00 0.00 99 1017.8
20260508053022 42 0.0 0.0 0.00 0.00 0.00 99 1017.8
20260508052526 42 0.0 0.0 0.00 0.00 0.00 99 1017.8
20260508052018 41 0.0 0.0 0.00 0.00 0.00 99 1017.7
20260508051522 40 0.0 0.0 0.00 0.00 0.00 99 1017.7
20260508051056 39 0.0 0.0 0.00 0.00 0.00 99 1017.7
20260508050519 39 0.0 0.0 0.00 0.00 0.00 99 1017.7
20260508050022 39 0.0 0.0 0.00 0.00 0.00 99 1017.7
20260508045526 38 0.0 0.0 0.00 0.00 0.00 99 1017.7
20260508045018 38 0.0 0.0 0.00 0.00 0.00 99 1017.7
20260508044523 38 0.0 0.0 0.00 0.00 0.00 99 1017.7
20260508044027 38 0.0 0.0 0.00 0.00 0.00 99 1017.7
20260508043519 38 0.0 0.0 0.00 0.00 0.00 99 1017.7
20260508043023 38 0.0 0.0 0.00 0.00 0.00 99 1017.7
20260508042515 38 0.0 0.0 0.00 0.00 0.00 99 1016.9
20260508042020 38 0.0 0.0 0.00 0.00 0.00 99 1016.7
20260508041524 38 0.0 0.0 0.00 0.00 0.00 99 1016.7
20260508041016 38 0.0 0.0 0.00 0.00 0.00 99 1016.7
20260508040533 38 0.0 0.0 0.00 0.00 0.00 99 1016.7
20260508040025 38 0.0 0.0 0.00 0.00 0.00 99 1016.7
20260508035517 38 0.0 0.0 0.00 0.00 0.00 99 1016.7
20260508035020 38 0.0 0.0 0.00 0.00 0.00 99 1016.7
20260508034555 38 0.0 0.0 0.00 0.00 0.00 99 1016.7
20260508034016 38 0.0 0.0 0.00 0.00 0.00 99 1016.7
20260508033520 38 0.0 0.0 0.00 0.00 0.00 99 1016.7
20260508033024 38 0.0 0.0 0.00 0.00 0.00 99 1016.7
20260508032517 38 0.0 0.0 0.00 0.00 0.00 99 1016.7
20260508032021 38 0.0 0.0 0.00 0.00 0.00 99 1016.7
20260508031526 39 0.0 0.0 0.00 0.00 0.00 99 1016.8
20260508031017 39 0.0 0.0 0.00 0.00 0.00 99 1016.8
20260508030622 39 0.0 0.0 0.00 0.00 0.00 99 1016.8
20260508030056 39 0.0 0.0 0.00 0.00 0.00 99 1016.8
20260508025519 39 0.0 0.0 0.00 0.00 0.00 99 1016.8
20260508025023 39 0.0 0.0 0.00 0.00 0.00 99 1016.8
20260508024516 39 0.0 0.0 0.00 0.00 0.00 99 1016.8
20260508024020 39 0.0 0.0 0.00 0.00 0.00 99 1016.8
20260508023525 40 0.0 0.0 0.00 0.00 0.00 99 1016.8
20260508023017 40 0.0 0.0 0.00 0.00 0.00 99 1016.8
20260508022522 40 0.0 0.0 0.00 0.00 0.00 99 1016.8
20260508022026 40 0.0 0.0 0.00 0.00 0.00 99 1016.8
20260508021548 40 0.0 0.0 0.00 0.00 0.00 99 1016.8
20260508021023 40 0.0 0.0 0.00 0.00 0.00 99 1016.7
20260508020526 40 0.0 0.0 0.00 0.00 0.00 99 1016.7
20260508020018 40 0.0 0.0 0.00 0.00 0.00 99 1016.7
20260508015522 40 0.0 0.0 0.00 0.00 0.00 99 1016.7
20260508015056 40 0.0 0.0 0.00 0.00 0.00 99 1016.7
20260508014518 41 0.0 0.0 0.00 0.00 0.00 99 1016.8
20260508014022 41 0.0 0.0 0.00 0.00 0.00 99 1016.7
20260508013526 41 0.0 0.0 0.00 0.00 0.00 99 1016.7
20260508013048 41 0.0 0.0 0.00 0.00 0.00 99 1016.7
20260508012522 41 0.0 0.0 0.00 0.00 0.00 99 1016.7
20260508012027 41 0.0 0.0 0.00 0.00 0.00 99 1016.7
20260508011519 41 0.0 0.0 0.00 0.00 0.00 99 1016.7
20260508011053 41 0.0 0.0 0.00 0.00 0.00 99 1016.7
20260508010922 41 0.0 0.0 0.00 0.00 0.00 99 1016.7
20260508010021 41 0.0 0.0 0.00 0.00 0.00 99 1016.7
20260508005525 40 0.0 0.0 0.00 0.00 0.00 99 1016.7
20260508005017 41 0.0 0.0 0.00 0.00 0.00 99 1016.7
20260508004621 41 0.0 0.0 0.00 0.00 0.00 99 1016.7
20260508004025 41 0.0 0.0 0.00 0.00 0.00 99 1016.7
20260508003517 41 0.0 0.0 0.00 0.00 0.00 99 1016.7
20260508003022 41 0.0 0.0 0.00 0.00 0.00 99 1016.7
20260508002556 41 0.0 0.0 0.00 0.00 0.00 99 1016.7
20260508002017 42 0.0 0.0 0.00 0.00 0.00 99 1016.7
20260508001522 42 0.0 0.0 0.00 0.00 0.00 99 1016.7
20260508001026 42 0.0 0.0 0.00 0.00 0.00 99 1016.7
20260508000517 42 0.0 0.0 0.00 0.00 0.00 99 1017.1
20260508000021 42 0.0 0.0 0.00 0.00 0.00 99 1017.7
20260507235525 42 0.0 0.0 0.00 0.00 0.00 99 1017.7
20260507235016 42 0.0 0.0 0.00 0.00 0.00 99 1017.7
20260507234520 43 0.0 0.0 0.00 0.00 0.00 99 1017.7
20260507234024 43 0.0 0.0 0.00 0.00 0.00 99 1017.7
20260507233545 43 0.0 0.0 0.00 0.00 0.00 99 1017.7
20260507233020 43 0.0 0.0 0.00 0.00 0.00 99 1017.7
20260507232553 43 0.0 0.0 0.00 0.00 0.00 99 1017.7
20260507232027 43 0.0 0.0 0.00 0.00 0.00 99 1017.5
20260507231519 43 0.0 0.0 0.00 0.00 0.00 99 1016.7
20260507231023 43 0.0 0.0 0.00 0.00 0.00 99 1016.7
20260507230515 43 0.0 0.0 0.00 0.00 0.00 99 1016.7
20260507230020 43 0.0 0.0 0.00 0.00 0.00 99 1016.7
20260507225523 43 0.0 0.0 0.00 0.00 0.00 99 1016.7
20260507225016 43 0.0 0.0 0.00 0.00 0.00 99 1016.7
20260507224527 44 0.0 0.0 0.00 0.00 0.00 99 1016.7
20260507224018 44 0.0 0.0 0.00 0.00 0.00 99 1016.7
20260507223523 44 0.0 0.0 0.00 0.00 0.00 99 1017.4
20260507223026 44 0.0 0.0 0.00 0.00 0.00 99 1017.8
20260507222518 44 0.0 0.0 0.00 0.00 0.00 99 1017.8
20260507222022 44 0.0 0.0 0.00 0.00 0.00 99 1017.2
20260507221527 45 0.0 0.0 0.00 0.00 0.00 99 1016.7
20260507221018 45 0.0 0.0 0.00 0.00 0.00 99 1016.7
20260507220536 45 0.0 0.0 0.00 0.00 0.00 99 1016.7
20260507220057 45 0.0 0.0 0.00 0.00 0.00 99 1016.7
20260507215519 45 0.0 0.0 0.00 0.00 0.00 99 1016.7
20260507215022 46 0.0 0.0 0.00 0.00 0.00 99 1016.8
20260507214556 46 0.0 0.0 0.00 0.00 0.00 99 1016.8
20260507214018 46 0.0 0.0 0.00 0.00 0.00 99 1016.8
20260507213522 46 0.0 0.0 0.00 0.00 0.00 99 1016.8
20260507213031 46 0.0 0.0 0.00 0.00 0.00 98 1016.8
20260507212037 47 0.0 0.0 0.00 0.00 0.00 97 1016.8
20260507211527 47 0.0 0.0 0.00 0.00 0.00 97 1016.8
20260507211019 47 0.0 0.0 0.00 0.00 0.00 97 1016.8
20260507210523 47 0.0 0.0 0.00 0.00 0.00 98 1016.8
20260507210015 47 0.0 0.0 0.00 0.00 0.00 98 1016.8
20260507205519 47 0.0 0.0 0.00 0.00 0.00 97 1016.8
20260507205037 48 0.0 0.0 0.00 0.00 0.00 97 1016.8
20260507204529 48 0.0 0.0 0.00 0.00 0.00 97 1016.8
20260507204020 48 0.0 0.0 0.00 0.00 0.00 97 1016.8
20260507203623 48 0.0 0.0 0.00 0.00 0.00 97 1016.8
20260507203015 48 0.0 0.0 0.00 0.00 0.00 97 1016.8
20260507202519 48 0.0 0.0 0.00 0.00 0.00 97 1016.8
20260507202024 48 0.0 0.0 0.00 0.00 0.00 97 1016.8
20260507201516 49 0.0 0.0 0.00 0.00 0.00 96 1016.8
20260507201020 49 0.0 0.0 0.00 0.00 0.00 96 1016.8
20260507200524 49 0.0 0.0 0.00 0.00 0.00 96 1016.8
20260507200016 49 0.0 0.0 0.00 0.00 0.00 95 1016.8
20260507195620 49 0.0 0.0 0.00 0.00 0.00 95 1016.8
20260507195024 50 0.0 0.0 0.00 0.00 0.00 95 1016.8
20260507194515 50 0.0 0.0 0.00 0.00 0.00 94 1016.8
20260507194019 50 0.0 0.0 0.00 0.00 0.00 93 1016.8
20260507193554 51 0.0 0.0 0.00 0.00 0.00 92 1016.8
20260507193015 51 0.0 0.0 0.00 0.00 0.00 92 1016.8
20260507192519 52 0.0 0.0 0.00 0.00 0.00 91 1016.8
20260507192023 52 0.0 0.0 0.00 0.00 0.00 89 1016.8
20260507191527 53 0.0 0.0 0.00 0.00 0.00 88 1016.9
20260507191018 53 0.0 0.0 0.00 0.00 0.00 88 1016.9
20260507190523 54 0.0 0.0 0.00 0.00 0.00 87 1016.9
20260507190015 55 0.0 0.0 0.00 0.00 0.00 84 1016.4
20260507185519 55 0.0 0.0 0.00 0.00 0.00 83 1015.9
20260507185024 55 0.0 0.0 0.00 0.00 0.00 81 1015.9
20260507184516 55 0.0 0.0 0.00 0.00 0.00 80 1015.9
20260507184020 56 0.0 0.0 0.00 0.00 0.00 80 1015.9
20260507183555 56 0.0 0.0 0.00 0.00 0.00 80 1015.9
20260507183046 56 0.0 0.0 0.00 0.00 0.00 78 1015.9
20260507182520 56 0.0 0.0 0.00 0.00 0.00 77 1015.9
20260507182054 57 0.0 0.0 0.00 0.00 0.00 77 1015.9
20260507181516 57 0.0 0.0 0.00 0.00 0.00 77 1015.9
20260507181050 57 0.0 0.0 0.00 0.00 0.00 77 1015.9
20260507180525 58 0.0 0.0 0.00 0.00 0.00 77 1015.9
20260507180016 58 0.0 0.0 0.00 0.00 0.00 76 1015.9